Location: Bucquoy
(50.1391°N, 2.7097°E)
Time: 23:58:27
(UTC+00:00)

ERBS - Pass Details

Date: 06 May 2021
Orbit: 399 x 417 km, 57.0° (Epoch: 21 June)

Event Time Altitude Azimuth Distance (km) Brightness Sun altitude
Rises 01:03:46 0° 302° (WNW) 2,362 6.2 -21.1°
Reaches altitude 10° 01:05:52 10° 300° (WNW) 1,499 5.1 -21.0°
Enters shadow 01:07:09 22° 298° (WNW) 983 4.1 -20.9°
